Location: Unspecified
(0.0000°N, 0.0000°E)
Time: 11:07:43
(UTC+00:00)

Envisat - Visible Passes

Search period start: 16 July 2019 00:00
Search period end: 26 July 2019 00:00
Orbit: 764 x 766 km, 98.1° (Epoch: 16 July)

Date Brightness Start Highest point End Pass type
(mag) Time Alt. Az. Time Alt. Az. Time Alt. Az.
16 Jul 6.0 20:05:31 10° WSW 20:06:10 10° WSW 20:06:49 10° W visible
17 Jul 4.8 19:25:09 10° SSW 19:29:34 30° WSW 19:33:58 10° NW visible
18 Jul 3.0 18:47:49 10° S 18:52:55 88° W 18:57:58 10° NNW visible
19 Jul 5.9 05:42:51 10° ENE 05:45:10 13° ESE 05:47:28 10° SE visible
19 Jul 5.7 19:52:15 10° SW 19:54:59 15° WSW 19:57:42 10° WNW visible
20 Jul 4.2 19:13:35 10° S 19:18:21 41° WSW 19:23:06 10° NNW visible
21 Jul 3.0 18:36:38 10° SSE 18:41:42 68° ENE 18:46:43 10° N visible
22 Jul 5.4 19:40:08 10° SSW 19:43:47 20° WSW 19:47:25 10° NW visible
23 Jul 3.7 19:02:10 10° S 19:07:08 57° WSW 19:12:06 10° NNW visible
24 Jul 3.3 18:25:35 10° SSE 18:30:29 49° ENE 18:35:21 10° N visible
25 Jul 5.0 19:28:21 10° SSW 19:32:34 27° WSW 19:36:48 10° NW visible
